• Processing (Info)

  • MPEC 2001-G24 : 2000 CF59

    The following Minor Planet Electronic Circular may be linked-to from your own Web pages, but must not otherwise be redistributed electronically.

    A form allowing access to any MPEC is at the bottom of this page.


    Read MPEC 2001-G23 Read MPEC 2001-G25


    M.P.E.C. 2001-G24                                Issued 2001 Apr. 11, 19:41 UT
    
         The Minor Planet Electronic Circulars contain information on unusual
             minor planets and routine data on comets.  They are published
       on behalf of Commission 20 of the International Astronomical Union by the
              Minor Planet Center, Smithsonian Astrophysical Observatory,
                              Cambridge, MA 02138, U.S.A.
    
                 Prepared using the Tamkin Foundation Computer Network
    
                                  MPC@CFA.HARVARD.EDU
              URL http://cfa-www.harvard.edu/iau/mpc.html  ISSN 1523-6714
    
                                       2000 CF59
    
                               Revision to MPEC 2000-C39
    
    Observations:
         K00C59F  C1998 02 24.40023 10 11 28.88 +25 15 50.1          18.2 V      566
         K00C59F  C1998 02 24.40994 10 11 27.82 +25 16 03.2          18.4 V      566
         K00C59F  C1998 02 24.41949 10 11 26.75 +25 16 15.7          18.5 V      566
    
    Observer details:
    566 Haleakala-NEAT/GEODSS.  Observers E. F. Helin, S. Pravdo, K. J. Lawrence,
        D. L. Rabinowitz for the NEAT team.  Images located and measured by
        R. Haver, A. Pelloni, G. Forti.  1.0-m f/2.2 GEODSS telescope + CCD.
    
    First and last observations above in comparison with prediction:
    Residuals in seconds of arc (or two decimals in degrees), reference and Delta-T
    980224 566 0.04- 0.01-    980224 566 0.04- 0.01-    MPC 39594   +0.11 day
    
    Orbital elements:
    2000 CF59
    Epoch 2001 Apr. 1.0 TT = JDT 2452000.5                  Williams
    M 238.39682              (2000.0)            P               Q
    n   0.45280146     Peri.  222.33155     +0.89238965     -0.18916857
    a   1.6795677      Node   141.91515     +0.12309266     +0.97550751
    e   0.6397294      Incl.   41.62164     -0.43415310     -0.11225131
    P   2.18           H   16.5           G   0.15           U   4
    Residuals in seconds of arc
    980224 566  0.0   0.7-    000206 596 (2.2-  0.5+)   000210 610  1.0-  1.9-
    980224 566  0.2+  0.2-    000206 596  1.4-  0.1+    000214 595  0.2-  0.0
    980224 566  0.1+  0.2-    000206 118  0.5+  0.3+    000214 595  0.9-  0.8+
    000205 703  0.5+  0.3+    000206 596  0.7-  0.0     000222 595  0.2+  0.9+
    000205 703  0.0   0.3+    000206 118  0.3+  0.7+    000222 595  0.5+  0.6-
    000205 703  0.2+  0.4+    000206 118  0.3+  0.3+    000222 595  0.4-  0.3-
    000205 703  0.5+  0.3+    000207 557  0.1+  0.2+    000222 595  0.1-  0.3-
    000205 596  1.2-  1.6+    000207 557  0.1+  0.1-    000224 413  0.2-  0.3-
    000205 596  0.7+  1.0+    000207 557  0.2+  0.4+    000224 413  0.1-  0.2-
    000205 596  0.2-  0.1-    000207 557  0.3+  0.3+    000224 104  0.3-  1.2-
    000205 596  0.5-  0.7-    000207 670  0.3-  0.7-    000224 104  1.1-  1.1-
    000205 046  0.2-  0.3+    000207 670  0.7-  0.8-    000226 413  0.2-  0.1+
    000205 046  0.1-  0.4-    000207 651 (2.6-  1.0-)   000226 413  0.3-  0.1+
    000205 046  0.5+  0.2-    000207 651 (1.4-  2.8-)   000227 703  1.1+  0.9+
    000205 046  0.0   0.6-    000207 651  0.1+  0.0     000227 703  0.4+  0.2+
    000205 611  0.2+  0.6+    000207 422  0.3+  0.1+    000227 703  0.1-  0.7+
    000205 611  0.8-  0.5+    000207 422  0.3+  0.0     000227 703  0.3-  0.3+
    000205 611  0.4-  0.2-    000207 422  0.2+  0.1-    000227 360  0.3-  0.1+
    000205 557  0.4+  0.3+    000207 557  0.6-  0.7-    000227 360  0.1-  0.5-
    000205 557  0.2+  0.1+    000207 557  0.3-  0.9-    000227 360  0.0   0.5+
    000205 557  0.1+  0.1-    000207 557  0.5-  0.3-    000228 747  0.4+  0.5+
    000206 670  1.8-  0.7+    000209 413  0.0   0.1+    000228 747  0.0   0.3+
    000206 670  0.1-  0.2-    000209 413  0.1+  0.2+    000228 747  0.1+  0.5+
    000206 858  0.4+  0.3+    000209 428  0.1-  0.1-    000228 046  0.2-  0.1-
    000206 858  0.3+  0.2+    000209 428  0.4-  0.4-    000228 046  0.2+  0.2+
    000206 858  0.5+  0.5+    000209 118  1.3+  0.2+    000228 046  0.4+  0.6+
    000206 850  0.5-  0.3-    000209 118  0.1+  0.7+    000228 046  0.3+  0.3+
    000206 670  0.1+  0.1-    000209 118  0.2-  0.2+    000228 118  1.3+  0.1-
    000206 850  0.2-  1.4-    000209 595  0.4-  0.8-    000228 118  0.0   0.5+
    000206 681  0.4-  1.8-    000209 595  0.3-  0.6-    000305 704  0.4+  0.1-
    000206 681  0.1-  0.5+    000209 595  1.1-  0.5-    000305 704  0.9-  0.5+
    000206 681  0.4-  0.1+    000209 595  1.4-  0.3-    000305 704  0.0   0.5+
    000206 681  0.6-  0.8+    000210 540  1.5+  1.5-    000305 704  0.4+  0.4-
    000206 681  0.3+  1.5+    000210 108 (2.7+  2.5-)   000305 704  1.3+  0.3-
    000206 681  0.6+  0.2+    000210 540  0.8+  0.2+    000306 046  0.8-  0.7+
    000206 467  0.8+  0.5+    000210 540  0.8+  0.1+    000306 046  0.6-  0.0
    000206 467  0.8-  0.7-    000210 108  1.2+  0.5+    000306 046  0.2-  0.3-
    000206 467  0.4+  0.3-    000210 108  1.2+  0.6+    000309 704  0.2-  0.5+
    000206 467  0.8+  0.8+    000210 610  1.4+  0.1-    000309 704  1.7-  0.2-
    000206 422  0.4+  0.1-    000210 610  0.9+  0.6-    000309 704  1.1-  0.1+
    000206 422  0.3+  0.1+    000210 610  0.2+  1.0-    000309 704  0.6-  0.1+
    000206 422  0.4+  0.3+    000210 610  0.3-  1.4-
    
    Ephemeris:
    2000 CF59                a,e,i = 1.68, 0.64, 42                  q = 0.6051
    Date    TT    R. A. (2000) Decl.     Delta      r     Elong.  Phase     V
    2001 04 11    14 26.60   +44 44.2    1.797    2.508   124.8    19.2    20.7
    2001 04 21    14 10.65   +46 45.8    1.794    2.470   121.3    20.3    20.7
    2001 05 01    13 53.48   +47 53.4    1.807    2.430   116.5    21.8    20.8
    2001 05 11    13 37.12   +48 05.9    1.833    2.386   110.8    23.3    20.8
    2001 05 21    13 23.26   +47 28.7    1.869    2.339   104.6    24.7    20.8
    2001 05 31    13 13.03   +46 10.6    1.910    2.290    98.4    26.0    20.9
    2001 06 10    13 06.82   +44 21.9    1.953    2.237    92.3    27.0    20.9
    2001 06 20    13 04.52   +42 10.8    1.994    2.181    86.4    27.7    20.9
    2001 06 30    13 05.77   +39 43.7    2.032    2.121    80.8    28.2    20.9
    2001 07 10    13 10.11   +37 05.2    2.063    2.058    75.5    28.6    20.9
    2001 07 20    13 17.13   +34 18.0    2.087    1.991    70.4    28.7    20.9
    2001 07 30    13 26.50   +31 23.6    2.101    1.921    65.7    28.8    20.8
    2001 08 09    13 37.94   +28 22.8    2.106    1.847    61.3    28.8    20.7
    
    Gareth V. Williams           (C) Copyright 2001 MPC           M.P.E.C. 2001-G24
    

    Read MPEC 2001-G23 Read MPEC 2001-G25


    MPEC number:

    Enter an MPEC number in one of the following forms:

    • 1997-B01 (the full form)
    • J97B01 (the packed version of the full form)
    • B01 (the abbreviated form)